Location: Gad�tanya
(48.0500°N, 20.8500°E)
Time: 23:04:19
(UTC+00:00)

Cosmos 2184 Rocket - Pass Details

Date: 05 July 2020
Orbit: 960 x 1001 km, 82.9° (Epoch: 05 August)

Event Time Altitude Azimuth Distance (km) Brightness Sun altitude
Exits shadow 20:42:26 17° 176° (S) 2,232 5.3 -14.4°
Maximum altitude 20:47:18 72° 95° (E) 1,032 4.0 -14.8°
Drops below altitude 10° 20:53:35 10° 13° (NNE) 2,758 7.1 -15.3°
Sets 20:56:08 0° 11° (N) 3,716 8.0 -15.4°
